Weather in Shekpeer

Russia / Tyva Republic     51°10′09″N   90°40′48″E
temp.,
°C
wind,
m/s
gust,
m/s
humid.,
%
clouds,
%
prec.,
mm/h
press.,
hPa
HPBL,
m
28 february, sun
sun2801:00−28n118334 0.0 104120
04:00−29nw11807 0.0 104219
07:00−30nnw11804 0.0 104419
10:00−25ssw11790 0.0 104339
13:00−21se11780 0.0 1039254
16:00−19e21842 0.0 1037240
19:00−25nne119715 0.0 103820
22:00−25ene0186100 0.0 103920
1 march, mon
mon101:00−24sw0084100 0.0 103720
04:00−26w0087100 0.0 103620
07:00−27wsw0087100 0.0 103419
10:00−23s008274 0.0 103171
13:00−18ese117787 0.0 1026262
16:00−17ese1182100 0.0 1022225
19:00−20ene1195100 0.0 102220
22:00−21ene1192100 0.0 102220
2 march, tue
tue201:00−23ese019191 0.0 102120
04:00−20e0187100 0.0 102020
07:00−22e018986 0.0 102120
10:00−16e11840 0.0 102053
13:00−11ese21811 0.0 1019175
16:00−9e228556 0.0 1017129
19:00−13ene228878 0.0 101921
22:00−13ne1182100 0.0 102021
3 march, wed
wed301:00−13nne0081100 0.0 101821
04:00−15nne0086100 0.0 101720
07:00−15w0087100 0.0 101620
10:00−11s1185100 0.0 101545
13:00−8se118271 0.0 1013252
16:00−6e118285 0.0 1012207
19:00−10ne129392 0.1 101521
22:00−13ese019458 0.3 102021
4 march, thu
thu401:00−12nnw228276 0.3 102322
04:00−16nnw2268100 0.1 102521
07:00−19nnw126978 0.1 102820
10:00−14w11691 0.0 102878
13:00−10sse11691 0.0 1026247
16:00−9ese117642 0.0 1024265
19:00−16nne119025 0.0 102720
22:00−17nnw118460 0.0 102920